| time (UTC) | temp C | wind direction | speed KPH | gust KPH | rain 1hr cm | rain 24hr cm | rain mn cm | humidity % | barometer mb |
| 20260504033038 | -17 | 0.0 | 0.0 | 0.00 | 0.00 | 0.00 | 1018.0 | ||
| 20260504031532 | -17 | 0.0 | 0.0 | 0.00 | 0.00 | 0.00 | 1018.2 | ||
| 20260504030036 | -17 | 0.0 | 0.0 | 0.00 | 0.00 | 0.00 | 1018.2 | ||
| 20260504024532 | -17 | 0.0 | 0.0 | 0.00 | 0.00 | 0.00 | 1018.0 | ||
| 20260504023034 | -17 | 0.0 | 0.0 | 0.00 | 0.00 | 0.00 | 1017.9 | ||
| 20260504021537 | -17 | 0.0 | 0.0 | 0.00 | 0.00 | 0.00 | 1017.6 | ||
| 20260504020042 | -17 | 0.0 | 0.0 | 0.00 | 0.00 | 0.00 | 1017.5 | ||
| 20260504014533 | -17 | 0.0 | 0.0 | 0.00 | 0.00 | 0.00 | 1017.3 | ||
| 20260504013037 | -17 | 0.0 | 0.0 | 0.00 | 0.00 | 0.00 | 1017.3 | ||
| 20260504011534 | -17 | 0.0 | 0.0 | 0.00 | 0.00 | 0.00 | 1017.2 | ||
| 20260504010034 | -17 | 0.0 | 0.0 | 0.00 | 0.00 | 0.00 | 1017.1 | ||
| 20260504004539 | -17 | 0.0 | 0.0 | 0.00 | 0.00 | 0.00 | 1017.0 | ||
| 20260504003039 | -17 | 0.0 | 0.0 | 0.00 | 0.00 | 0.00 | 1016.8 | ||
| 20260504001538 | 15 | 0 | 0.0 | 0.0 | 0.00 | 0.00 | 0.00 | 60 | 1017.0 |
| 20260504000053 | 16 | 0 | 0.0 | 1.6 | 0.00 | 0.00 | 0.00 | 53 | 1016.8 |
| 20260503234537 | 17 | 0 | 0.0 | 3.2 | 0.00 | 0.00 | 0.00 | 47 | 1016.7 |
| 20260503233031 | 18 | 157 | 0.0 | 3.2 | 0.00 | 0.00 | 0.00 | 41 | 1016.8 |
| 20260503231532 | 18 | 156 | 0.0 | 9.7 | 0.00 | 0.00 | 0.00 | 40 | 1016.9 |
| 20260503230033 | 18 | 231 | 1.6 | 14.5 | 0.00 | 0.00 | 0.00 | 39 | 1016.8 |
| 20260503224533 | 19 | 230 | 0.0 | 14.5 | 0.00 | 0.00 | 0.00 | 38 | 1016.7 |
| 20260503223038 | 19 | 224 | 1.6 | 6.4 | 0.00 | 0.00 | 0.00 | 39 | 1016.8 |
| 20260503221546 | 20 | 229 | 1.6 | 14.5 | 0.00 | 0.00 | 0.00 | 37 | 1016.9 |
| 20260503220030 | 20 | 194 | 3.2 | 12.9 | 0.00 | 0.00 | 0.00 | 36 | 1017.0 |
| 20260503214533 | 20 | 196 | 1.6 | 14.5 | 0.00 | 0.00 | 0.00 | 37 | 1017.2 |
| 20260503213031 | 20 | 138 | 3.2 | 9.7 | 0.00 | 0.00 | 0.00 | 35 | 1017.2 |
| 20260503211533 | 20 | 238 | 4.8 | 14.5 | 0.00 | 0.00 | 0.00 | 35 | 1017.3 |
| 20260503210036 | 20 | 230 | 3.2 | 16.1 | 0.00 | 0.00 | 0.00 | 36 | 1017.5 |
| 20260503204534 | 20 | 194 | 3.2 | 14.5 | 0.00 | 0.00 | 0.00 | 35 | 1017.7 |
| 20260503203049 | 20 | 0 | 1.6 | 9.7 | 0.00 | 0.00 | 0.00 | 37 | 1017.9 |
| 20260503201537 | 20 | 159 | 3.2 | 14.5 | 0.00 | 0.00 | 0.00 | 37 | 1018.2 |
| 20260503200037 | 19 | 0 | 3.2 | 11.3 | 0.00 | 0.00 | 0.00 | 37 | 1018.5 |
| 20260503194531 | 19 | 227 | 6.4 | 17.7 | 0.00 | 0.00 | 0.00 | 37 | 1018.8 |
| 20260503193036 | 19 | 236 | 6.4 | 20.9 | 0.00 | 0.00 | 0.00 | 38 | 1019.1 |
| 20260503191537 | 18 | 198 | 3.2 | 16.1 | 0.00 | 0.00 | 0.00 | 37 | 1019.3 |
| 20260503190039 | 19 | 208 | 3.2 | 11.3 | 0.00 | 0.00 | 0.00 | 37 | 1019.3 |
| 20260503184532 | 18 | 233 | 3.2 | 16.1 | 0.00 | 0.00 | 0.00 | 36 | 1019.5 |
| 20260503183034 | 18 | 242 | 6.4 | 16.1 | 0.00 | 0.00 | 0.00 | 39 | 1019.4 |
| 20260503181531 | 18 | 184 | 1.6 | 19.3 | 0.00 | 0.00 | 0.00 | 39 | 1019.7 |
| 20260503180032 | 17 | 178 | 0.0 | 12.9 | 0.00 | 0.00 | 0.00 | 38 | 1019.8 |
| 20260503174531 | 18 | 245 | 8.0 | 22.5 | 0.00 | 0.00 | 0.00 | 39 | 1020.1 |
| 20260503173050 | 17 | 146 | 3.2 | 11.3 | 0.00 | 0.00 | 0.00 | 41 | 1020.1 |
| 20260503171538 | 17 | 0 | 3.2 | 14.5 | 0.00 | 0.00 | 0.00 | 39 | 1020.5 |
| 20260503081535 | -17 | 0.0 | 0.0 | 0.00 | 0.00 | 0.00 | 1018.4 | ||
| 20260503071534 | -17 | 0.0 | 0.0 | 0.00 | 0.00 | 0.00 | 1017.6 | ||
| 20260503054536 | -17 | 0.0 | 0.0 | 0.00 | 0.00 | 0.00 | 1017.6 | ||
| 20260503053031 | -17 | 0.0 | 0.0 | 0.00 | 0.00 | 0.00 | 1017.8 | ||
| 20260503051535 | -17 | 0.0 | 0.0 | 0.00 | 0.00 | 0.00 | 1017.7 | ||
| 20260503050034 | -17 | 0.0 | 0.0 | 0.00 | 0.00 | 0.00 | 1017.7 | ||
| 20260503044534 | -17 | 0.0 | 0.0 | 0.00 | 0.00 | 0.00 | 1017.5 | ||
| 20260503043031 | -17 | 0.0 | 0.0 | 0.00 | 0.00 | 0.00 | 1017.5 | ||
| 20260503041533 | -17 | 0.0 | 0.0 | 0.00 | 0.00 | 0.00 | 1017.4 | ||
| 20260503040034 | -17 | 0.0 | 0.0 | 0.00 | 0.00 | 0.00 | 1017.5 | ||
| 20260503034535 | -17 | 0.0 | 0.0 | 0.00 | 0.00 | 0.00 | 1017.4 |